Weather in Douglas

United Kingdom     54°09′01″N   4°28′51″W
temp.,
°C
wind,
m/s
gust,
m/s
humid.,
%
clouds,
%
prec.,
mm/h
press.,
hPa
HPBL,
m
10 may, mon
mon1001:00+9s71390100 0.1 990868
04:00+9sse7138980 0.1 990846
07:00+9sse5118691 0.3 990933
10:00+9sse51292100 0.4 991857
13:00+10s7139296 0.9 992965
16:00+10s9148451 0.4 9931009
19:00+9s9168596 0.6 9941186
22:00+8ssw81484100 0.1 9961211
11 may, tue
tue1101:00+8ssw71387100 0.7 9991147
04:00+7ssw6128487 0.1 1002918
07:00+8s5108419 0.1 1003805
10:00+10sse47661 0.0 1005768
13:00+11se466174 0.0 1005844
16:00+12ese576867 0.1 1004913
19:00+10e4778100 0.3 1004437
22:00+8ne4797100 0.8 1004283
12 may, wed
wed1201:00+8ne259656 1.6 1003159
04:00+6s019712 0.1 100314
07:00+7wnw129764 0.1 1005121
10:00+9s129174 0.6 1006436
13:00+10s247991 1.7 1007902
16:00+10s2378100 0.3 1008544
19:00+10ese127681 0.4 1008330
22:00+8e118365 0.0 100914
13 may, thu
thu1301:00+6s11947 0.0 101011
04:00+6n119385 0.0 101011
07:00+8ene2389100 0.1 101088
10:00+10e2380100 0.1 1011372
13:00+12ene237030 0.2 1011637
16:00+13ne226226 0.2 1011957
19:00+12nne33693 0.2 1011511
22:00+7e119421 0.0 101212
14 may, fri
fri1401:00+8ene2495100 0.0 1012100
04:00+7ne3595100 0.1 1013180
07:00+7ne3591100 0.2 1013257
10:00+9ne4473100 0.0 1014596
13:00+11ne4561100 0.0 1014765
16:00+12nne3458100 0.0 1014819
19:00+11nnw226485 0.0 1014511
22:00+7wnw1186100 0.0 101418